Hourly Data Report for February 03, 2020

TORONTO CITY
ONTARIO
Current Station Operator: ECCC - MSC

43°40'00.000" N
79°24'00.000" W
112.50 m
6158355
71508
XTO

Download Data

Hourly Data (February 2020)
Hourly Data Report for February 3, 2020
TIME
LST
Temp Definition
°C
Dew Point Definition
°C
Rel Hum Definition
%
Precip. Amount Definition
mm

Wind Dir Definition
10's deg

Wind Spd Definition
km/h
Visibility Definition
km
Stn Press Definition
kPa
Hmdx Definition


Wind Chill Definition


Weather Definition


00:00 2.3 0.7 90 0.0       98.70     LegendNANA
01:00 2.3 0.8 90 0.0       98.78     LegendNANA
02:00 2.7 1.0 88 0.0       98.87     LegendNANA
03:00 3.1 0.2 82 0.0       98.98     LegendNANA
04:00 3.3 -0.4 77 0.0       99.11     LegendNANA
05:00 3.6 -1.0 72 0.0       99.26     LegendNANA
06:00 3.5 -1.7 69 0.2       99.35     LegendNANA
07:00 3.5 -1.6 69 0.0       99.46     LegendNANA
08:00 3.4 -1.8 69 0.0       99.56     LegendNANA
09:00 3.7 -1.9 67 0.0       99.63     LegendNANA
10:00 4.1 -2.4 63 0.0       99.61     LegendNANA
11:00 4.4 -2.4 61 0.0       99.72     LegendNANA
12:00 4.9 -2.7 58 0.0       99.71     LegendNANA
13:00 5.6 -3.4 52 0.0       99.64     LegendNANA
14:00 5.3 -2.6 57 0.3       99.62     LegendNANA
15:00 5.4 -3.0 55 0.0       99.62     LegendNANA
16:00 5.4 -2.9 55 0.0       99.64     LegendNANA
17:00 4.9 -4.2 52 0.0       99.65     LegendNANA
18:00 4.5 -3.7 55 0.0       99.67     LegendNANA
19:00 3.5 -3.3 61 0.0       99.72     LegendNANA
20:00 3.9 -3.1 60 0.0       99.69     LegendNANA
21:00 2.7 -3.3 64 0.0       99.62     LegendNANA
22:00 2.4 -3.6 64 0.0       99.53     LegendNANA
23:00 2.6 -3.7 63 0.0       99.51     LegendNANA

Notes on Data Quality.

Legend

  • E = Estimated
  • M = Missing
  • NA = Not Available*
  • [empty] = Indicates an unobserved value
Date modified: